Home   Weather   McAllen   Past weeks
Flag for USA

Past Weather in McAllen, Texas, USA — Yesterday and Last 2 Weeks

Now
70 °F

Mostly cloudy.


Feels Like: 73 °F
Forecast: 71 / 56 °F
Wind: 3 mph from North

Location: Miller International Airport

Current Time: Jan 17, 2019 at 3:25:33 pm

Latest Report: Jan 17, 2019 at 2:30 pm


Visibility: 9 mi

Pressure: 30.15 "Hg

Humidity: 73%

Dew Point: 61 °F

Location of McAllenLocation

Past Weather in McAllen — Graph

°F

McAllen Temperature Yesterday

Maximum temperature yesterday: 65 °F (at 3:53 pm)
Minimum temperature yesterday: 53 °F (at 12:25 am)
Average temperature yesterday: 58 °F

High & Low Weather Summary for the Past Weeks

 TemperatureHumidityPressure
High85 °F (Jan 7, 3:53 pm)100% (Jan 12, 8:53 am)30.44 "Hg (Jan 12, 8:53 am)
Low41 °F (Jan 4, 4:53 am)21% (Jan 4, 12:53 pm)29.89 "Hg (Jan 11, 2:53 pm)
Average63 °F77%30.17 "Hg
* Reported Jan 2 2:53 pm — Jan 17 2:00 pm, McAllen. Weather by CustomWeather, © 2019

Note: Actual official high and low records may vary slightly from our data, if they occured in-between our weather recording intervals... More about our weather records

Advertising

McAllen Weather History for the Previous 24 Hours

Scroll right to see more
 ConditionsComfort  
Time TempWeatherWind HumidityBarometerVisibility
2:00 pm
Thu, Jan 17
69 °FMostly cloudy.5 mph76%30.16 "Hg10 mi
12:53 pm67 °FLow clouds.3 mph81%30.20 "Hg9 mi
11:53 am65 °FLow clouds.No wind85%30.23 "Hg9 mi
10:53 am64 °FLow clouds.3 mph84%30.25 "Hg5 mi
9:53 am63 °FMostly cloudy.No wind87%30.24 "Hg7 mi
8:53 am62 °FMostly cloudy.3 mph90%30.22 "Hg7 mi
7:53 am61 °FMostly cloudy.No wind90%30.21 "Hg7 mi
7:11 am60 °FMostly cloudy.7 mph90%30.19 "Hg8 mi
6:53 am61 °FOvercast.5 mph87%30.18 "Hg7 mi
6:00 am61 °FOvercast.6 mph87%30.17 "Hg10 mi
4:53 am59 °FOvercast.No wind93%30.16 "Hg10 mi
3:53 am56 °FPassing clouds.No wind97%30.16 "Hg9 mi
2:53 am57 °FClear.No wind96%30.17 "Hg10 mi
1:53 am57 °FClear.No wind93%30.17 "Hg10 mi
12:53 am61 °FOvercast.No wind87%30.19 "Hg10 mi
11:53 pm
Wed, Jan 16
61 °FOvercast.3 mph87%30.21 "Hg10 mi
10:53 pm61 °FOvercast.3 mph87%30.21 "Hg10 mi
9:53 pm61 °FOvercast.3 mph87%30.21 "Hg10 mi
8:53 pm61 °FOvercast.3 mph87%30.20 "Hg10 mi
7:53 pm62 °FOvercast.3 mph83%30.20 "Hg10 mi
6:53 pm62 °FOvercast.6 mph86%30.18 "Hg10 mi
5:53 pm63 °FOvercast.5 mph81%30.17 "Hg10 mi
4:53 pm65 °FOvercast.3 mph76%30.17 "Hg10 mi
3:53 pm65 °FOvercast.6 mph76%30.16 "Hg10 mi
Weather by CustomWeather, © 2019

See weather overview